View from above orbital plane
|
View from above satellite
|
Ground track
|
The orbit data is extracted from the following two-line orbital elements,
1 37363U 11005B 21018.26666912 .00000481 00000-0 20094-4 0 9991
2 37363 99.4331 23.2304 0321065 221.0625 136.6021 14.95085568539504
Epoch (UTC): | 18 January 2021 06:24:00 |
Eccentricity: | 0.0321065 |
inclination: | 99.4331° |
perigee height: | 358 km |
apogee height: | 805 km |
right ascension of ascending node: | 23.2304° |
argument of perigee: | 221.0625° |
revolutions per day: | 14.95085568 |
mean anomaly at epoch: | 136.6021° |
orbit number at epoch: | 53950 |
The dashed part of the orbit path shows where the satellite is in the earth's shadow,
|
|